�������l�o���
Date,Time,MP-1(��Sv/h),MP-2(��Sv/h),MP-3(��Sv/h),MP-4(��Sv/h),MP-5(��Sv/h),MP-6(��Sv/h),MP-7(��Sv/h),MP-8(��Sv/h),����,����(m/s),���J
2023/11/11,00:00,0.519,0.784,0.489,0.988,0.707,0.316,0.567,0.530,���k��,5.6,��
2023/11/11,00:10,0.520,0.781,0.488,0.990,0.708,0.315,0.568,0.530,���k��,4.3,��
2023/11/11,00:20,0.519,0.781,0.489,0.989,0.708,0.314,0.566,0.530,�k�k��,3.6,��
2023/11/11,00:30,0.519,0.782,0.490,0.988,0.708,0.315,0.566,0.530,�k�k��,4.4,��
2023/11/11,00:40,0.521,0.782,0.489,0.989,0.708,0.316,0.567,0.530,�k�k��,5.8,��
2023/11/11,00:50,0.520,0.783,0.488,0.989,0.707,0.316,0.566,0.532,�k��,8.1,��
2023/11/11,01:00,0.520,0.782,0.488,0.990,0.710,0.317,0.567,0.530,�k��,8.8,��
2023/11/11,01:10,0.522,0.785,0.490,0.990,0.709,0.317,0.567,0.531,�k��,8.1,��
2023/11/11,01:20,0.520,0.781,0.490,0.991,0.709,0.317,0.568,0.530,�k��,7.2,��
2023/11/11,01:30,0.519,0.785,0.489,0.987,0.709,0.316,0.567,0.532,�k��,6.0,��
2023/11/11,01:40,0.521,0.783,0.488,0.989,0.710,0.316,0.568,0.531,�k��,6.6,��
2023/11/11,01:50,0.522,0.783,0.491,0.989,0.709,0.314,0.568,0.531,�k��,6.3,��
2023/11/11,02:00,0.523,0.783,0.488,0.990,0.710,0.316,0.568,0.532,�k��,6.7,��
2023/11/11,02:10,0.522,0.783,0.490,0.993,0.710,0.314,0.567,0.530,�k��,11.1,��
2023/11/11,02:20,0.520,0.784,0.489,0.989,0.708,0.314,0.568,0.531,�k��,9.6,��
2023/11/11,02:30,0.521,0.785,0.490,0.992,0.710,0.315,0.566,0.530,�k��,11.6,��
2023/11/11,02:40,0.520,0.785,0.492,0.990,0.710,0.315,0.566,0.532,�k��,10.2,��
2023/11/11,02:50,0.520,0.785,0.488,0.992,0.711,0.316,0.568,0.530,�k��,12.8,��
2023/11/11,03:00,0.520,0.785,0.490,0.992,0.711,0.316,0.566,0.531,�k��,8.8,��
2023/11/11,03:10,0.522,0.784,0.490,0.992,0.714,0.316,0.567,0.531,�k��,9.1,��
2023/11/11,03:20,0.522,0.784,0.490,0.994,0.713,0.317,0.567,0.529,�k��,8.0,��
2023/11/11,03:30,0.520,0.784,0.489,0.992,0.712,0.316,0.566,0.531,�k��,7.8,��
2023/11/11,03:40,0.522,0.784,0.490,0.993,0.714,0.318,0.567,0.529,�k��,10.5,��
2023/11/11,03:50,0.519,0.785,0.489,0.993,0.712,0.316,0.567,0.530,�k��,12.8,��
2023/11/11,04:00,0.522,0.786,0.488,0.990,0.713,0.316,0.566,0.531,�k��,10.7,��
2023/11/11,04:10,0.520,0.785,0.489,0.992,0.711,0.315,0.566,0.531,�k��,14.2,��
2023/11/11,04:20,0.520,0.783,0.491,0.991,0.713,0.316,0.565,0.529,�k��,13.8,��
2023/11/11,04:30,0.520,0.785,0.489,0.994,0.712,0.316,0.566,0.531,�k��,10.3,��
2023/11/11,04:40,0.522,0.782,0.490,0.993,0.714,0.315,0.565,0.530,�k��,9.1,��
2023/11/11,04:50,0.522,0.783,0.490,0.993,0.712,0.315,0.566,0.530,�k��,11.4,��
2023/11/11,05:00,0.520,0.786,0.488,0.993,0.712,0.316,0.564,0.531,�k��,12.2,��
2023/11/11,05:10,0.522,0.785,0.490,0.994,0.713,0.315,0.566,0.530,�k��,12.5,��
2023/11/11,05:20,0.520,0.786,0.490,0.992,0.712,0.315,0.566,0.531,�k�k��,7.1,��
2023/11/11,05:30,0.520,0.786,0.488,0.994,0.712,0.315,0.565,0.532,�k��,9.8,��
2023/11/11,05:40,0.519,0.786,0.488,0.993,0.711,0.316,0.566,0.530,�k��,8.6,��
2023/11/11,05:50,0.521,0.787,0.488,0.994,0.712,0.315,0.567,0.529,�k��,8.7,��
2023/11/11,06:00,0.521,0.788,0.490,0.994,0.713,0.317,0.566,0.530,�k��,9.3,��
2023/11/11,06:10,0.521,0.786,0.488,0.994,0.712,0.316,0.566,0.531,�k��,11.3,��
2023/11/11,06:20,0.520,0.787,0.490,0.993,0.713,0.315,0.566,0.530,�k��,9.2,��
2023/11/11,06:30,0.521,0.786,0.489,0.993,0.712,0.315,0.565,0.530,�k��,8.2,��
2023/11/11,06:40,0.521,0.787,0.488,0.993,0.713,0.315,0.567,0.531,�k��,8.0,��
2023/11/11,06:50,0.522,0.785,0.488,0.994,0.712,0.314,0.567,0.531,�k�k��,6.6,��
2023/11/11,07:00,0.520,0.784,0.489,0.993,0.713,0.315,0.568,0.530,�k��,6.0,��
2023/11/11,07:10,0.518,0.785,0.490,0.992,0.711,0.315,0.566,0.531,�k��,5.1,��
2023/11/11,07:20,0.520,0.785,0.489,0.995,0.711,0.315,0.568,0.530,�k��,6.6,��
2023/11/11,07:30,0.520,0.786,0.489,0.995,0.712,0.315,0.568,0.529,�k�k��,4.8,��
2023/11/11,07:40,0.519,0.786,0.488,0.995,0.711,0.315,0.567,0.530,�k��,5.0,��
2023/11/11,07:50,0.520,0.789,0.489,0.995,0.713,0.315,0.567,0.531,�k��,7.0,��
2023/11/11,08:00,0.522,0.785,0.489,0.994,0.712,0.313,0.569,0.531,�k��,5.3,��
2023/11/11,08:10,0.520,0.787,0.489,0.993,0.713,0.314,0.566,0.531,�k��,5.9,��
2023/11/11,08:20,0.522,0.786,0.490,0.994,0.713,0.315,0.569,0.532,�k�k��,9.0,��
2023/11/11,08:30,0.521,0.786,0.487,0.993,0.711,0.315,0.567,0.532,�k��,10.8,��
2023/11/11,08:40,0.520,0.784,0.490,0.997,0.712,0.315,0.567,0.530,�k��,8.3,��
2023/11/11,08:50,0.523,0.785,0.489,0.994,0.713,0.315,0.566,0.530,�k��,10.6,��
2023/11/11,09:00,0.521,0.785,0.490,0.993,0.713,0.315,0.567,0.531,�k��,13.1,��
2023/11/11,09:10,0.519,0.786,0.489,0.995,0.714,0.315,0.568,0.531,�k��,10.5,��
2023/11/11,09:20,0.521,0.785,0.490,0.994,0.714,0.313,0.566,0.531,�k��,10.8,��
2023/11/11,09:30,0.520,0.786,0.491,0.995,0.715,0.315,0.565,0.531,�k��,6.1,��
2023/11/11,09:40,0.522,0.785,0.491,0.994,0.714,0.317,0.566,0.531,�k��,8.3,��
2023/11/11,09:50,0.521,0.786,0.492,0.997,0.716,0.317,0.566,0.531,�k��,9.1,��
2023/11/11,10:00,0.521,0.786,0.491,0.995,0.715,0.315,0.567,0.531,�k��,7.6,��
2023/11/11,10:10,0.519,0.786,0.491,0.995,0.714,0.314,0.567,0.533,�k��,8.2,��
2023/11/11,10:20,0.520,0.786,0.489,0.996,0.714,0.313,0.566,0.531,�k��,8.5,��
2023/11/11,10:30,0.521,0.786,0.491,0.996,0.712,0.314,0.567,0.531,�k��,7.8,��
2023/11/11,10:40,0.520,0.786,0.491,0.995,0.714,0.314,0.566,0.531,�k��,6.7,��
2023/11/11,10:50,0.521,0.787,0.491,0.996,0.712,0.313,0.567,0.531,�k�k��,6.4,��
2023/11/11,11:00,0.519,0.788,0.490,0.996,0.711,0.314,0.567,0.532,�k�k��,5.9,��
2023/11/11,11:10,0.519,0.786,0.491,0.996,0.713,0.315,0.567,0.531,�k�k��,6.1,��
2023/11/11,11:20,0.521,0.786,0.491,0.997,0.714,0.315,0.566,0.532,�k�k��,6.0,��
2023/11/11,11:30,0.520,0.786,0.491,0.996,0.713,0.315,0.567,0.530,�k�k��,5.2,��
2023/11/11,11:40,0.522,0.787,0.491,0.994,0.713,0.315,0.567,0.532,�k�k��,5.8,��
2023/11/11,11:50,0.523,0.789,0.491,0.996,0.716,0.316,0.566,0.531,�k�k��,5.8,��
2023/11/11,12:00,0.522,0.787,0.492,0.997,0.714,0.316,0.567,0.531,�k�k��,8.1,��
2023/11/11,12:10,0.522,0.789,0.493,0.995,0.715,0.317,0.566,0.530,�k�k��,5.4,��
2023/11/11,12:20,0.522,0.790,0.493,0.995,0.714,0.315,0.566,0.529,�k�k��,6.9,��
2023/11/11,12:30,0.523,0.789,0.491,0.994,0.712,0.316,0.566,0.529,�k�k��,5.4,��
2023/11/11,12:40,0.525,0.791,0.492,0.996,0.715,0.316,0.565,0.531,�k�k��,6.3,��
2023/11/11,12:50,0.524,0.791,0.493,0.997,0.714,0.317,0.568,0.531,�k��,6.2,��
2023/11/11,13:00,0.523,0.791,0.493,0.996,0.714,0.317,0.566,0.531,�k��,6.5,��
2023/11/11,13:10,0.525,0.792,0.491,0.997,0.715,0.316,0.566,0.531,�k,6.6,��
2023/11/11,13:20,0.524,0.791,0.493,0.998,0.714,0.316,0.567,0.531,�k�k��,7.7,��
2023/11/11,13:30,0.524,0.790,0.492,0.997,0.717,0.317,0.566,0.531,�k�k��,7.2,��
2023/11/11,13:40,0.523,0.790,0.492,0.997,0.716,0.317,0.566,0.531,�k�k��,7.2,��
2023/11/11,13:50,0.524,0.790,0.492,0.998,0.714,0.317,0.566,0.530,�k�k��,8.1,��
2023/11/11,14:00,0.524,0.790,0.493,0.997,0.716,0.316,0.566,0.531,�k�k��,6.5,��
2023/11/11,14:10,0.524,0.788,0.490,1.000,0.715,0.317,0.566,0.530,�k,5.9,��
2023/11/11,14:20,0.524,0.787,0.490,0.999,0.715,0.317,0.568,0.529,�k�k��,6.4,��
2023/11/11,14:30,0.523,0.789,0.491,0.998,0.714,0.317,0.566,0.530,�k�k��,7.4,��
2023/11/11,14:40,0.522,0.792,0.491,0.997,0.716,0.316,0.567,0.531,�k�k��,7.0,��
2023/11/11,14:50,0.522,0.788,0.490,0.999,0.714,0.317,0.566,0.530,�k�k��,7.4,��
2023/11/11,15:00,0.523,0.788,0.491,0.998,0.715,0.317,0.568,0.530,�k��,7.7,��
2023/11/11,15:10,0.522,0.789,0.491,0.999,0.714,0.316,0.565,0.532,�k��,7.5,��
2023/11/11,15:20,0.523,0.790,0.490,1.002,0.715,0.317,0.567,0.530,�k��,6.1,��
2023/11/11,15:30,0.523,0.793,0.492,1.001,0.717,0.316,0.566,0.531,�k��,6.9,��
2023/11/11,15:40,0.524,0.793,0.491,0.999,0.716,0.316,0.565,0.530,�k��,4.4,��
2023/11/11,15:50,0.523,0.794,0.493,0.998,0.716,0.317,0.566,0.531,�k��,6.0,��
2023/11/11,16:00,0.524,0.792,0.492,0.998,0.715,0.316,0.567,0.531,�k��,6.0,��
2023/11/11,16:10,0.522,0.792,0.491,0.997,0.715,0.316,0.568,0.529,�k��,5.3,��
2023/11/11,16:20,0.522,0.792,0.492,0.998,0.718,0.315,0.568,0.531,�k��,4.5,��
2023/11/11,16:30,0.522,0.791,0.491,0.998,0.716,0.316,0.567,0.530,�k�k��,4.9,��
2023/11/11,16:40,0.524,0.793,0.492,0.998,0.717,0.317,0.568,0.530,�k�k��,4.3,��
2023/11/11,16:50,0.523,0.792,0.491,0.998,0.718,0.316,0.569,0.531,�k�k��,4.4,��
2023/11/11,17:00,0.524,0.792,0.490,0.997,0.717,0.316,0.569,0.530,�k��,4.8,��
2023/11/11,17:10,0.522,0.793,0.491,1.000,0.719,0.316,0.568,0.529,�k��,5.7,��
2023/11/11,17:20,0.521,0.791,0.491,1.000,0.717,0.316,0.570,0.529,�k��,5.4,��
2023/11/11,17:30,0.524,0.789,0.492,0.999,0.716,0.315,0.570,0.530,�k��,4.8,��
2023/11/11,17:40,0.524,0.791,0.492,0.998,0.716,0.316,0.568,0.530,�k��,5.4,��
2023/11/11,17:50,0.522,0.792,0.492,0.997,0.716,0.316,0.568,0.529,�k��,5.5,��
2023/11/11,18:00,0.522,0.790,0.491,0.997,0.719,0.316,0.569,0.530,�k��,5.1,��
2023/11/11,18:10,0.522,0.791,0.489,0.998,0.717,0.315,0.568,0.529,�k��,5.1,��
2023/11/11,18:20,0.523,0.790,0.491,0.997,0.717,0.316,0.567,0.529,�k��,6.0,��
2023/11/11,18:30,0.523,0.793,0.491,0.996,0.718,0.316,0.569,0.528,�k��,6.7,��
2023/11/11,18:40,0.522,0.791,0.491,0.998,0.715,0.316,0.568,0.528,�k��,6.6,��
2023/11/11,18:50,0.523,0.791,0.492,0.997,0.716,0.316,0.568,0.530,�k��,6.1,��
2023/11/11,19:00,0.522,0.791,0.491,0.998,0.716,0.315,0.568,0.530,�k��,4.1,��
2023/11/11,19:10,0.522,0.791,0.490,0.998,0.717,0.316,0.569,0.530,�k��,3.2,��
2023/11/11,19:20,0.522,0.790,0.491,0.998,0.716,0.315,0.569,0.529,�k��,3.6,��
2023/11/11,19:30,0.523,0.792,0.490,0.997,0.715,0.316,0.569,0.530,�k��,3.5,��
2023/11/11,19:40,0.522,0.791,0.491,0.998,0.717,0.315,0.568,0.528,���k��,3.0,��
2023/11/11,19:50,0.522,0.791,0.491,1.000,0.718,0.314,0.570,0.529,���k��,1.7,��
2023/11/11,20:00,0.520,0.791,0.489,0.999,0.717,0.314,0.569,0.529,�k��,1.5,��
2023/11/11,20:10,0.521,0.789,0.491,0.998,0.717,0.316,0.569,0.529,�k��,2.6,��
2023/11/11,20:20,0.522,0.789,0.491,0.999,0.717,0.315,0.569,0.529,�k��,2.6,��
2023/11/11,20:30,0.521,0.790,0.489,0.996,0.717,0.316,0.567,0.530,���k��,2.6,��
2023/11/11,20:40,0.522,0.790,0.490,0.998,0.717,0.315,0.567,0.530,���k��,2.5,��
2023/11/11,20:50,0.523,0.792,0.490,0.997,0.717,0.316,0.568,0.529,���k��,3.2,��
2023/11/11,21:00,0.522,0.790,0.491,1.000,0.716,0.315,0.569,0.529,���k��,3.2,��
2023/11/11,21:10,0.520,0.792,0.490,0.999,0.718,0.316,0.567,0.528,��,2.9,��
2023/11/11,21:20,0.522,0.791,0.488,0.998,0.717,0.316,0.568,0.529,��,2.9,��
2023/11/11,21:30,0.522,0.791,0.491,1.000,0.716,0.315,0.569,0.530,��,2.6,��
2023/11/11,21:40,0.523,0.790,0.490,0.999,0.716,0.314,0.569,0.528,���k��,3.1,��
2023/11/11,21:50,0.522,0.789,0.490,0.999,0.716,0.315,0.569,0.527,���k��,2.6,��
2023/11/11,22:00,0.521,0.791,0.490,0.997,0.716,0.314,0.568,0.528,��,1.7,��
2023/11/11,22:10,0.523,0.790,0.490,1.000,0.719,0.315,0.569,0.527,���k��,2.0,��
2023/11/11,22:20,0.523,0.790,0.489,1.000,0.717,0.315,0.569,0.528,���k��,2.6,��
2023/11/11,22:30,0.521,0.790,0.490,0.997,0.716,0.315,0.570,0.528,���k��,2.9,��
2023/11/11,22:40,0.522,0.791,0.491,0.999,0.716,0.316,0.567,0.528,���k��,3.6,��
2023/11/11,22:50,0.522,0.790,0.489,0.998,0.718,0.315,0.569,0.528,���k��,4.8,��
2023/11/11,23:00,0.522,0.791,0.491,1.001,0.716,0.316,0.569,0.529,���k��,4.6,��
2023/11/11,23:10,0.522,0.791,0.491,1.000,0.717,0.314,0.570,0.528,���k��,4.4,��
2023/11/11,23:20,0.521,0.790,0.489,0.997,0.716,0.315,0.569,0.529,���k��,3.6,��
2023/11/11,23:30,0.519,0.791,0.489,1.000,0.717,0.316,0.569,0.528,��,3.1,��
2023/11/11,23:40,0.523,0.790,0.490,0.998,0.716,0.315,0.568,0.529,��,2.3,��
2023/11/11,23:50,0.521,0.789,0.488,0.996,0.716,0.316,0.569,0.529,��,2.3,��
